owner,sensor,date,latitude,longitude,vertical_datum,sea_water_temperature,qcFlag
Shell,ioos:station:wmo:42902:2,2020-11-01T23:17:00Z,28.6105,-87.9796,11.0,25.7,11111222
Shell,ioos:station:wmo:42902:2,2020-11-01T23:27:00Z,28.6104,-87.9796,11.0,25.7,11111222
Shell,ioos:station:wmo:42902:2,2020-11-01T23:37:00Z,28.6105,-87.9796,11.0,25.7,11111222
Shell,ioos:station:wmo:42902:2,2020-11-01T23:47:00Z,28.6105,-87.9796,11.0,25.7,11111222
Shell,ioos:station:wmo:42902:2,2020-11-01T23:57:00Z,28.6104,-87.9796,11.0,25.7,11111222
Shell,ioos:station:wmo:42902:2,2020-11-02T00:07:00Z,28.6105,-87.9796,11.0,25.7,11111222
Shell,ioos:station:wmo:42902:2,2020-11-02T00:17:00Z,28.6105,-87.9796,11.0,25.7,11111222
Shell,ioos:station:wmo:42902:2,2020-11-02T00:27:00Z,28.6105,-87.9796,11.0,25.7,11111222
Shell,ioos:station:wmo:42902:2,2020-11-02T00:37:00Z,28.6104,-87.9796,11.0,25.7,11111222
Shell,ioos:station:wmo:42902:2,2020-11-02T00:47:00Z,28.6105,-87.9796,11.0,25.7,11111222
Shell,ioos:station:wmo:42902:2,2020-11-02T00:57:00Z,28.6104,-87.9796,11.0,25.7,11111222
Shell,ioos:station:wmo:42902:2,2020-11-02T01:07:00Z,28.6104,-87.9796,11.0,25.7,11111222
Shell,ioos:station:wmo:42902:2,2020-11-02T01:17:00Z,28.6104,-87.9796,11.0,25.7,11111222
Shell,ioos:station:wmo:42902:2,2020-11-02T01:27:00Z,28.6105,-87.9796,11.0,25.7,11111222
Shell,ioos:station:wmo:42902:2,2020-11-02T01:57:00Z,28.6105,-87.9796,11.0,25.7,11111222
Shell,ioos:station:wmo:42902:2,2020-11-02T02:07:00Z,28.6105,-87.9796,11.0,25.7,11111222
Shell,ioos:station:wmo:42902:2,2020-11-02T02:17:00Z,28.6105,-87.9796,11.0,25.7,11111222
Shell,ioos:station:wmo:42902:2,2020-11-02T02:27:00Z,28.6105,-87.9796,11.0,25.7,11111222
Shell,ioos:station:wmo:42902:2,2020-11-02T03:27:00Z,28.6105,-87.9796,11.0,25.7,11111222
Shell,ioos:station:wmo:42902:2,2020-11-02T03:37:00Z,28.6105,-87.9796,11.0,25.7,11111222
Shell,ioos:station:wmo:42902:2,2020-11-02T03:47:00Z,28.6105,-87.9796,11.0,25.7,11111222
Shell,ioos:station:wmo:42902:2,2020-11-02T03:57:00Z,28.6105,-87.9796,11.0,25.7,11111222
Shell,ioos:station:wmo:42902:2,2020-11-02T04:07:00Z,28.6105,-87.9796,11.0,25.7,11111222
Shell,ioos:station:wmo:42902:2,2020-11-02T04:17:00Z,28.6105,-87.9796,11.0,25.7,11111222
Shell,ioos:station:wmo:42902:2,2020-11-02T04:27:00Z,28.6105,-87.9796,11.0,25.7,11111222
Shell,ioos:station:wmo:42902:2,2020-11-02T04:37:00Z,28.6104,-87.9796,11.0,25.7,11111222
Shell,ioos:station:wmo:42902:2,2020-11-02T04:47:00Z,28.6104,-87.9796,11.0,25.7,11111222
Shell,ioos:station:wmo:42902:2,2020-11-02T04:57:00Z,28.6104,-87.9796,11.0,25.7,11111222
Shell,ioos:station:wmo:42902:2,2020-11-02T05:07:00Z,28.6105,-87.9796,11.0,25.7,11111222
Shell,ioos:station:wmo:42902:2,2020-11-02T05:17:00Z,28.6104,-87.9796,11.0,25.7,11111222
Shell,ioos:station:wmo:42902:2,2020-11-02T05:27:00Z,28.6105,-87.9796,11.0,25.7,11111222
Shell,ioos:station:wmo:42902:2,2020-11-02T05:37:00Z,28.6104,-87.9796,11.0,25.7,11111222
Shell,ioos:station:wmo:42902:2,2020-11-02T05:47:00Z,28.6104,-87.9796,11.0,25.7,11111222
Shell,ioos:station:wmo:42902:2,2020-11-02T05:57:00Z,28.6104,-87.9796,11.0,25.7,11111222
Shell,ioos:station:wmo:42902:2,2020-11-02T06:07:00Z,28.6105,-87.9796,11.0,25.7,11111222
Shell,ioos:station:wmo:42902:2,2020-11-02T06:17:00Z,28.6104,-87.9796,11.0,25.7,11111222
Shell,ioos:station:wmo:42902:2,2020-11-02T06:27:00Z,28.6104,-87.9796,11.0,25.7,11111222
Shell,ioos:station:wmo:42902:2,2020-11-02T06:37:00Z,28.6104,-87.9796,11.0,25.7,11111222
Shell,ioos:station:wmo:42902:2,2020-11-02T06:47:00Z,28.6104,-87.9796,11.0,25.6,11111222
Shell,ioos:station:wmo:42902:2,2020-11-02T06:57:00Z,28.6105,-87.9796,11.0,25.7,11111222
Shell,ioos:station:wmo:42902:2,2020-11-02T07:07:00Z,28.6104,-87.9796,11.0,25.6,11111222
Shell,ioos:station:wmo:42902:2,2020-11-02T07:17:00Z,28.6104,-87.9796,11.0,25.6,11111222
Shell,ioos:station:wmo:42902:2,2020-11-02T07:27:00Z,28.6105,-87.9796,11.0,25.6,11111222
Shell,ioos:station:wmo:42902:2,2020-11-02T07:37:00Z,28.6104,-87.9796,11.0,25.6,11111222
Shell,ioos:station:wmo:42902:2,2020-11-02T07:47:00Z,28.6105,-87.9796,11.0,25.6,11111222
Shell,ioos:station:wmo:42902:2,2020-11-02T07:57:00Z,28.6105,-87.9797,11.0,25.6,11111222
Shell,ioos:station:wmo:42902:2,2020-11-02T08:07:00Z,28.6105,-87.9796,11.0,25.6,11111222
Shell,ioos:station:wmo:42902:2,2020-11-02T08:17:00Z,28.6105,-87.9796,11.0,25.6,11111222
Shell,ioos:station:wmo:42902:2,2020-11-02T08:27:00Z,28.6105,-87.9796,11.0,25.6,11111222
Shell,ioos:station:wmo:42902:2,2020-11-02T08:37:00Z,28.6104,-87.9795,11.0,25.6,11111222
Shell,ioos:station:wmo:42902:2,2020-11-02T08:47:00Z,28.6104,-87.9795,11.0,25.6,11111222
Shell,ioos:station:wmo:42902:2,2020-11-02T08:57:00Z,28.6104,-87.9795,11.0,25.6,11111222
Shell,ioos:station:wmo:42902:2,2020-11-02T09:07:00Z,28.6104,-87.9795,11.0,25.6,11111222
Shell,ioos:station:wmo:42902:2,2020-11-02T09:17:00Z,28.6104,-87.9795,11.0,25.6,11111222
Shell,ioos:station:wmo:42902:2,2020-11-02T09:27:00Z,28.6105,-87.9795,11.0,25.6,11111222
Shell,ioos:station:wmo:42902:2,2020-11-02T09:37:00Z,28.6104,-87.9795,11.0,25.6,11111222
Shell,ioos:station:wmo:42902:2,2020-11-02T09:47:00Z,28.6104,-87.9795,11.0,25.6,11111222
Shell,ioos:station:wmo:42902:2,2020-11-02T09:57:00Z,28.6104,-87.9795,11.0,25.6,11111222
Shell,ioos:station:wmo:42902:2,2020-11-02T10:07:00Z,28.6104,-87.9795,11.0,25.6,11111222
Shell,ioos:station:wmo:42902:2,2020-11-02T10:17:00Z,28.6104,-87.9795,11.0,25.6,11111222
Shell,ioos:station:wmo:42902:2,2020-11-02T10:27:00Z,28.6104,-87.9795,11.0,25.6,11111222
Shell,ioos:station:wmo:42902:2,2020-11-02T10:37:00Z,28.6104,-87.9795,11.0,25.6,11111222
Shell,ioos:station:wmo:42902:2,2020-11-02T10:47:00Z,28.6104,-87.9795,11.0,25.6,11111222
Shell,ioos:station:wmo:42902:2,2020-11-02T10:57:00Z,28.6104,-87.9795,11.0,25.6,11111222
Shell,ioos:station:wmo:42902:2,2020-11-02T11:07:00Z,28.6104,-87.9795,11.0,25.6,11111222
Shell,ioos:station:wmo:42902:2,2020-11-02T11:17:00Z,28.6104,-87.9795,11.0,25.6,11111222
Shell,ioos:station:wmo:42902:2,2020-11-02T11:27:00Z,28.6104,-87.9795,11.0,25.6,11111222
Shell,ioos:station:wmo:42902:2,2020-11-02T11:37:00Z,28.6104,-87.9795,11.0,25.6,11111222
Shell,ioos:station:wmo:42902:2,2020-11-02T11:47:00Z,28.6104,-87.9795,11.0,25.6,11111222
Shell,ioos:station:wmo:42902:2,2020-11-02T11:57:00Z,28.6104,-87.9795,11.0,25.6,11111222
Shell,ioos:station:wmo:42902:2,2020-11-02T12:07:00Z,28.6104,-87.9794,11.0,25.6,11111222
Shell,ioos:station:wmo:42902:2,2020-11-02T12:17:00Z,28.6103,-87.9794,11.0,25.5,11111222
Shell,ioos:station:wmo:42902:2,2020-11-02T12:27:00Z,28.6103,-87.9794,11.0,25.5,11111222
Shell,ioos:station:wmo:42902:2,2020-11-02T12:37:00Z,28.6103,-87.9794,11.0,25.5,11111222
Shell,ioos:station:wmo:42902:2,2020-11-02T12:47:00Z,28.6103,-87.9794,11.0,25.5,11111222
Shell,ioos:station:wmo:42902:2,2020-11-02T12:57:00Z,28.6104,-87.9794,11.0,25.5,11111222
Shell,ioos:station:wmo:42902:2,2020-11-02T13:07:00Z,28.6104,-87.9794,11.0,25.5,11111222
Shell,ioos:station:wmo:42902:2,2020-11-02T13:17:00Z,28.6104,-87.9794,11.0,25.5,11111222
Shell,ioos:station:wmo:42902:2,2020-11-02T13:27:00Z,28.6103,-87.9794,11.0,25.5,11111222
Shell,ioos:station:wmo:42902:2,2020-11-02T13:37:00Z,28.6103,-87.9794,11.0,25.5,11111222
Shell,ioos:station:wmo:42902:2,2020-11-02T13:47:00Z,28.6103,-87.9794,11.0,25.5,11111222
Shell,ioos:station:wmo:42902:2,2020-11-02T13:57:00Z,28.6103,-87.9794,11.0,25.5,11111222
Shell,ioos:station:wmo:42902:2,2020-11-02T14:07:00Z,28.6103,-87.9794,11.0,25.5,11111222
Shell,ioos:station:wmo:42902:2,2020-11-02T14:17:00Z,28.6103,-87.9793,11.0,25.5,11111222
Shell,ioos:station:wmo:42902:2,2020-11-02T14:27:00Z,28.6103,-87.9793,11.0,25.5,11111222
Shell,ioos:station:wmo:42902:2,2020-11-02T14:37:00Z,28.6103,-87.9793,11.0,25.5,11111222
Shell,ioos:station:wmo:42902:2,2020-11-02T14:47:00Z,28.6103,-87.9793,11.0,25.5,11111222
Shell,ioos:station:wmo:42902:2,2020-11-02T14:57:00Z,28.6103,-87.9793,11.0,25.5,11111222
Shell,ioos:station:wmo:42902:2,2020-11-02T15:07:00Z,28.6103,-87.9793,11.0,25.5,11111222
Shell,ioos:station:wmo:42902:2,2020-11-02T15:17:00Z,28.6103,-87.9793,11.0,25.5,11111222
Shell,ioos:station:wmo:42902:2,2020-11-02T15:27:00Z,28.6103,-87.9793,11.0,25.5,11111222
Shell,ioos:station:wmo:42902:2,2020-11-02T15:37:00Z,28.6103,-87.9793,11.0,25.5,11111222
Shell,ioos:station:wmo:42902:2,2020-11-02T15:47:00Z,28.6103,-87.9793,11.0,25.5,11111222
Shell,ioos:station:wmo:42902:2,2020-11-02T15:57:00Z,28.6103,-87.9793,11.0,25.5,11111222
Shell,ioos:station:wmo:42902:2,2020-11-02T16:07:00Z,28.6103,-87.9793,11.0,25.5,11111222
Shell,ioos:station:wmo:42902:2,2020-11-02T16:17:00Z,28.6103,-87.9793,11.0,25.5,11111222
Shell,ioos:station:wmo:42902:2,2020-11-02T16:27:00Z,28.6103,-87.9793,11.0,25.5,11111222
Shell,ioos:station:wmo:42902:2,2020-11-02T16:37:00Z,28.6103,-87.9793,11.0,25.5,11111222
Shell,ioos:station:wmo:42902:2,2020-11-02T16:47:00Z,28.6103,-87.9793,11.0,25.5,11111222
Shell,ioos:station:wmo:42902:2,2020-11-02T16:57:00Z,28.6103,-87.9793,11.0,25.5,11111222
Shell,ioos:station:wmo:42902:2,2020-11-02T17:07:00Z,28.6103,-87.9793,11.0,25.5,11111222
Shell,ioos:station:wmo:42902:2,2020-11-02T17:17:00Z,28.6103,-87.9793,11.0,25.5,11111222
Shell,ioos:station:wmo:42902:2,2020-11-02T17:27:00Z,28.6103,-87.9793,11.0,25.5,11111222
Shell,ioos:station:wmo:42902:2,2020-11-02T17:37:00Z,28.6103,-87.9793,11.0,25.5,11111222
Shell,ioos:station:wmo:42902:2,2020-11-02T17:47:00Z,28.6103,-87.9793,11.0,25.5,11111222
Shell,ioos:station:wmo:42902:2,2020-11-02T17:57:00Z,28.6103,-87.9793,11.0,25.6,11111222
Shell,ioos:station:wmo:42902:2,2020-11-02T18:07:00Z,28.6103,-87.9793,11.0,25.6,11111222
Shell,ioos:station:wmo:42902:2,2020-11-02T18:17:00Z,28.6103,-87.9793,11.0,25.5,11111222
Shell,ioos:station:wmo:42902:2,2020-11-02T18:27:00Z,28.6103,-87.9793,11.0,25.5,11111222
Shell,ioos:station:wmo:42902:2,2020-11-02T18:37:00Z,28.6103,-87.9793,11.0,25.5,11111222
Shell,ioos:station:wmo:42902:2,2020-11-02T18:47:00Z,28.6103,-87.9793,11.0,25.5,11111222
Shell,ioos:station:wmo:42902:2,2020-11-02T18:57:00Z,28.6103,-87.9793,11.0,25.5,11111222
Shell,ioos:station:wmo:42902:2,2020-11-02T19:07:00Z,28.6103,-87.9793,11.0,25.5,11111222
Shell,ioos:station:wmo:42902:2,2020-11-02T19:17:00Z,28.6103,-87.9793,11.0,25.5,11111222
Shell,ioos:station:wmo:42902:2,2020-11-02T19:27:00Z,28.6103,-87.9793,11.0,25.5,11111222
Shell,ioos:station:wmo:42902:2,2020-11-02T19:37:00Z,28.6103,-87.9793,11.0,25.5,11111222
Shell,ioos:station:wmo:42902:2,2020-11-02T19:47:00Z,28.6103,-87.9793,11.0,25.5,11111222
Shell,ioos:station:wmo:42902:2,2020-11-02T19:57:00Z,28.6103,-87.9793,11.0,25.5,11111222
Shell,ioos:station:wmo:42902:2,2020-11-02T20:07:00Z,28.6103,-87.9793,11.0,25.5,11111222
Shell,ioos:station:wmo:42902:2,2020-11-02T20:17:00Z,28.6103,-87.9793,11.0,25.5,11111222
Shell,ioos:station:wmo:42902:2,2020-11-02T20:27:00Z,28.6103,-87.9793,11.0,25.5,11111222
Shell,ioos:station:wmo:42902:2,2020-11-02T20:37:00Z,28.6103,-87.9793,11.0,25.5,11111222
Shell,ioos:station:wmo:42902:2,2020-11-02T20:47:00Z,28.6103,-87.9793,11.0,25.5,11111222
Shell,ioos:station:wmo:42902:2,2020-11-02T20:57:00Z,28.6103,-87.9793,11.0,25.5,11111222
Shell,ioos:station:wmo:42902:2,2020-11-02T21:07:00Z,28.6103,-87.9793,11.0,25.5,11111222
Shell,ioos:station:wmo:42902:2,2020-11-02T21:17:00Z,28.6103,-87.9793,11.0,25.5,11111222
Shell,ioos:station:wmo:42902:2,2020-11-02T21:27:00Z,28.6103,-87.9793,11.0,25.5,11111222
Shell,ioos:station:wmo:42902:2,2020-11-02T21:37:00Z,28.6103,-87.9793,11.0,25.5,11111222
Shell,ioos:station:wmo:42902:2,2020-11-02T21:47:00Z,28.6103,-87.9793,11.0,25.5,11111222
Shell,ioos:station:wmo:42902:2,2020-11-02T21:57:00Z,28.6103,-87.9793,11.0,25.5,11111222
Shell,ioos:station:wmo:42902:2,2020-11-02T22:07:00Z,28.6103,-87.9793,11.0,25.5,11111222
Shell,ioos:station:wmo:42902:2,2020-11-02T22:17:00Z,28.6103,-87.9793,11.0,25.5,11111222
Shell,ioos:station:wmo:42902:2,2020-11-02T22:27:00Z,28.6103,-87.9793,11.0,25.5,11111222
Shell,ioos:station:wmo:42902:2,2020-11-02T22:37:00Z,28.6103,-87.9793,11.0,25.5,11111222
Shell,ioos:station:wmo:42902:2,2020-11-02T22:47:00Z,28.6103,-87.9793,11.0,25.5,11111222
Shell,ioos:station:wmo:42902:2,2020-11-02T22:57:00Z,28.6103,-87.9793,11.0,25.5,11111222
Shell,ioos:station:wmo:42902:2,2020-11-02T23:07:00Z,28.6103,-87.9793,11.0,25.5,11111222
Shell,ioos:station:wmo:42902:2,2020-11-02T23:17:00Z,28.6103,-87.9793,11.0,25.6,11111222
Shell,ioos:station:wmo:42902:2,2020-11-02T23:27:00Z,28.6103,-87.9793,11.0,25.6,11111222
Shell,ioos:station:wmo:42902:2,2020-11-02T23:37:00Z,28.6103,-87.9793,11.0,25.6,11111222
Shell,ioos:station:wmo:42902:2,2020-11-02T23:47:00Z,28.6103,-87.9793,11.0,25.6,11111222
Shell,ioos:station:wmo:42902:2,2020-11-02T23:57:00Z,28.6103,-87.9793,11.0,25.6,11111222
Shell,ioos:station:wmo:42902:2,2020-11-03T00:07:00Z,28.6103,-87.9793,11.0,25.6,11111222
Shell,ioos:station:wmo:42902:2,2020-11-03T00:17:00Z,28.6103,-87.9793,11.0,25.6,11111222
Shell,ioos:station:wmo:42902:2,2020-11-03T00:27:00Z,28.6103,-87.9793,11.0,25.6,11111222
Shell,ioos:station:wmo:42902:2,2020-11-03T00:37:00Z,28.6103,-87.9793,11.0,25.6,11111222
Shell,ioos:station:wmo:42902:2,2020-11-03T00:47:00Z,28.6103,-87.9793,11.0,25.6,11111222
Shell,ioos:station:wmo:42902:2,2020-11-03T00:57:00Z,28.6103,-87.9793,11.0,25.6,11111222
Shell,ioos:station:wmo:42902:2,2020-11-03T01:07:00Z,28.6103,-87.9793,11.0,25.6,11111222
Shell,ioos:station:wmo:42902:2,2020-11-03T01:17:00Z,28.6103,-87.9793,11.0,25.6,11111222
Shell,ioos:station:wmo:42902:2,2020-11-03T01:27:00Z,28.6103,-87.9793,11.0,25.5,11111222
Shell,ioos:station:wmo:42902:2,2020-11-03T01:37:00Z,28.6103,-87.9793,11.0,25.5,11111222
Shell,ioos:station:wmo:42902:2,2020-11-03T01:47:00Z,28.6103,-87.9793,11.0,25.5,11111222
Shell,ioos:station:wmo:42902:2,2020-11-03T01:57:00Z,28.6103,-87.9793,11.0,25.5,11111222
Shell,ioos:station:wmo:42902:2,2020-11-03T02:07:00Z,28.6103,-87.9793,11.0,25.5,11111222
Shell,ioos:station:wmo:42902:2,2020-11-03T02:17:00Z,28.6103,-87.9793,11.0,25.5,11111222
Shell,ioos:station:wmo:42902:2,2020-11-03T02:27:00Z,28.6103,-87.9793,11.0,25.5,11111222
Shell,ioos:station:wmo:42902:2,2020-11-03T02:37:00Z,28.6103,-87.9793,11.0,25.5,11111222
Shell,ioos:station:wmo:42902:2,2020-11-03T02:47:00Z,28.6103,-87.9793,11.0,25.5,11111222
Shell,ioos:station:wmo:42902:2,2020-11-03T02:57:00Z,28.6103,-87.9793,11.0,25.5,11111222
Shell,ioos:station:wmo:42902:2,2020-11-03T03:07:00Z,28.6103,-87.9793,11.0,25.6,11111222
Shell,ioos:station:wmo:42902:2,2020-11-03T03:17:00Z,28.6103,-87.9793,11.0,25.5,11111222
Shell,ioos:station:wmo:42902:2,2020-11-03T03:27:00Z,28.6103,-87.9793,11.0,25.5,11111222
Shell,ioos:station:wmo:42902:2,2020-11-03T03:37:00Z,28.6103,-87.9793,11.0,25.5,11111222
Shell,ioos:station:wmo:42902:2,2020-11-03T03:47:00Z,28.6103,-87.9793,11.0,25.5,11111222
Shell,ioos:station:wmo:42902:2,2020-11-03T03:57:00Z,28.6103,-87.9793,11.0,25.5,11111222
Shell,ioos:station:wmo:42902:2,2020-11-03T04:07:00Z,28.6103,-87.9793,11.0,25.5,11111222
Shell,ioos:station:wmo:42902:2,2020-11-03T04:17:00Z,28.6103,-87.9793,11.0,25.5,11111222
Shell,ioos:station:wmo:42902:2,2020-11-03T04:27:00Z,28.6103,-87.9793,11.0,25.5,11111222
Shell,ioos:station:wmo:42902:2,2020-11-03T04:37:00Z,28.6103,-87.9793,11.0,25.5,11111222
Shell,ioos:station:wmo:42902:2,2020-11-03T04:47:00Z,28.6103,-87.9793,11.0,25.5,11111222
Shell,ioos:station:wmo:42902:2,2020-11-03T04:57:00Z,28.6103,-87.9793,11.0,25.5,11111222
Shell,ioos:station:wmo:42902:2,2020-11-03T05:07:00Z,28.6103,-87.9793,11.0,25.5,11111222
Shell,ioos:station:wmo:42902:2,2020-11-03T05:17:00Z,28.6103,-87.9793,11.0,25.5,11111222
Shell,ioos:station:wmo:42902:2,2020-11-03T05:27:00Z,28.6103,-87.9793,11.0,25.5,11111222
Shell,ioos:station:wmo:42902:2,2020-11-03T05:37:00Z,28.6103,-87.9793,11.0,25.5,11111222
Shell,ioos:station:wmo:42902:2,2020-11-03T05:47:00Z,28.6103,-87.9793,11.0,25.5,11111222
Shell,ioos:station:wmo:42902:2,2020-11-03T05:57:00Z,28.6103,-87.9793,11.0,25.5,11111222
Shell,ioos:station:wmo:42902:2,2020-11-03T06:07:00Z,28.6103,-87.9793,11.0,25.4,11111222
Shell,ioos:station:wmo:42902:2,2020-11-03T06:17:00Z,28.6103,-87.9793,11.0,25.5,11111222
Shell,ioos:station:wmo:42902:2,2020-11-03T06:27:00Z,28.6103,-87.9793,11.0,25.4,11111222
Shell,ioos:station:wmo:42902:2,2020-11-03T06:37:00Z,28.6103,-87.9793,11.0,25.4,11111222
Shell,ioos:station:wmo:42902:2,2020-11-03T06:47:00Z,28.6103,-87.9793,11.0,25.5,11111222
Shell,ioos:station:wmo:42902:2,2020-11-03T06:57:00Z,28.6103,-87.9793,11.0,25.4,11111222
Shell,ioos:station:wmo:42902:2,2020-11-03T07:07:00Z,28.6103,-87.9793,11.0,25.4,11111222
Shell,ioos:station:wmo:42902:2,2020-11-03T07:17:00Z,28.6103,-87.9793,11.0,25.4,11111222
Shell,ioos:station:wmo:42902:2,2020-11-03T07:27:00Z,28.6103,-87.9793,11.0,25.4,11111222
Shell,ioos:station:wmo:42902:2,2020-11-03T07:37:00Z,28.6103,-87.9793,11.0,25.4,11111222
Shell,ioos:station:wmo:42902:2,2020-11-03T07:47:00Z,28.6103,-87.9793,11.0,25.4,11111222
Shell,ioos:station:wmo:42902:2,2020-11-03T07:57:00Z,28.6103,-87.9793,11.0,25.4,11111222
Shell,ioos:station:wmo:42902:2,2020-11-03T08:07:00Z,28.6103,-87.9793,11.0,25.4,11111222
Shell,ioos:station:wmo:42902:2,2020-11-03T08:17:00Z,28.6103,-87.9793,11.0,25.4,11111222
Shell,ioos:station:wmo:42902:2,2020-11-03T08:27:00Z,28.6103,-87.9793,11.0,25.4,11111222
Shell,ioos:station:wmo:42902:2,2020-11-03T08:37:00Z,28.6103,-87.9793,11.0,25.4,11111222
Shell,ioos:station:wmo:42902:2,2020-11-03T08:47:00Z,28.6103,-87.9793,11.0,25.4,11111222
Shell,ioos:station:wmo:42902:2,2020-11-03T08:57:00Z,28.6103,-87.9793,11.0,25.4,11111222
Shell,ioos:station:wmo:42902:2,2020-11-03T09:07:00Z,28.6103,-87.9793,11.0,25.4,11111222
Shell,ioos:station:wmo:42902:2,2020-11-03T09:17:00Z,28.6103,-87.9793,11.0,25.4,11111222
Shell,ioos:station:wmo:42902:2,2020-11-03T09:27:00Z,28.6103,-87.9793,11.0,25.4,11111222
Shell,ioos:station:wmo:42902:2,2020-11-03T09:37:00Z,28.6103,-87.9793,11.0,25.4,11111222
Shell,ioos:station:wmo:42902:2,2020-11-03T09:47:00Z,28.6103,-87.9793,11.0,25.4,11111222
Shell,ioos:station:wmo:42902:2,2020-11-03T09:57:00Z,28.6103,-87.9793,11.0,25.4,11111222
Shell,ioos:station:wmo:42902:2,2020-11-03T10:07:00Z,28.6102,-87.9792,11.0,25.4,11111222
Shell,ioos:station:wmo:42902:2,2020-11-03T10:17:00Z,28.6100,-87.9791,11.0,25.4,11111222
Shell,ioos:station:wmo:42902:2,2020-11-03T10:27:00Z,28.6100,-87.9791,11.0,25.4,11111222
Shell,ioos:station:wmo:42902:2,2020-11-03T10:37:00Z,28.6100,-87.9791,11.0,25.4,11111222
Shell,ioos:station:wmo:42902:2,2020-11-03T10:47:00Z,28.6100,-87.9791,11.0,25.4,11111222
Shell,ioos:station:wmo:42902:2,2020-11-03T10:57:00Z,28.6101,-87.9790,11.0,25.4,11111222
Shell,ioos:station:wmo:42902:2,2020-11-03T11:07:00Z,28.6100,-87.9791,11.0,25.4,11111222
Shell,ioos:station:wmo:42902:2,2020-11-03T11:17:00Z,28.6100,-87.9791,11.0,25.4,11111222
Shell,ioos:station:wmo:42902:2,2020-11-03T11:27:00Z,28.6101,-87.9791,11.0,25.4,11111222
Shell,ioos:station:wmo:42902:2,2020-11-03T11:37:00Z,28.6100,-87.9791,11.0,25.4,11111222
Shell,ioos:station:wmo:42902:2,2020-11-03T11:47:00Z,28.6100,-87.9791,11.0,25.4,11111222
Shell,ioos:station:wmo:42902:2,2020-11-03T11:57:00Z,28.6100,-87.9791,11.0,25.4,11111222
Shell,ioos:station:wmo:42902:2,2020-11-03T12:07:00Z,28.6100,-87.9791,11.0,25.4,11111222
Shell,ioos:station:wmo:42902:2,2020-11-03T12:17:00Z,28.6100,-87.9791,11.0,25.4,11111222
Shell,ioos:station:wmo:42902:2,2020-11-03T12:27:00Z,28.6100,-87.9791,11.0,25.3,11111222
Shell,ioos:station:wmo:42902:2,2020-11-03T12:37:00Z,28.6100,-87.9791,11.0,25.4,11111222
Shell,ioos:station:wmo:42902:2,2020-11-03T12:47:00Z,28.6100,-87.9791,11.0,25.4,11111222
Shell,ioos:station:wmo:42902:2,2020-11-03T12:57:00Z,28.6101,-87.9791,11.0,25.4,11111222
Shell,ioos:station:wmo:42902:2,2020-11-03T13:07:00Z,28.6101,-87.9791,11.0,25.4,11111222
Shell,ioos:station:wmo:42902:2,2020-11-03T13:17:00Z,28.6100,-87.9791,11.0,25.3,11111222
Shell,ioos:station:wmo:42902:2,2020-11-03T13:27:00Z,28.6100,-87.9791,11.0,25.4,11111222
Shell,ioos:station:wmo:42902:2,2020-11-03T13:37:00Z,28.6100,-87.9791,11.0,25.3,11111222
Shell,ioos:station:wmo:42902:2,2020-11-03T13:47:00Z,28.6100,-87.9791,11.0,25.3,11111222
Shell,ioos:station:wmo:42902:2,2020-11-03T13:57:00Z,28.6105,-87.9803,11.0,25.3,11111222
Shell,ioos:station:wmo:42902:2,2020-11-03T14:07:00Z,28.6096,-87.9810,11.0,25.3,11111222
Shell,ioos:station:wmo:42902:2,2020-11-03T14:17:00Z,28.6096,-87.9810,11.0,25.3,11111222
Shell,ioos:station:wmo:42902:2,2020-11-03T14:27:00Z,28.6096,-87.9810,11.0,25.3,11111222
Shell,ioos:station:wmo:42902:2,2020-11-03T14:37:00Z,28.6096,-87.9810,11.0,25.3,11111222
Shell,ioos:station:wmo:42902:2,2020-11-03T14:47:00Z,28.6096,-87.9810,11.0,25.3,11111222
Shell,ioos:station:wmo:42902:2,2020-11-03T14:57:00Z,28.6096,-87.9810,11.0,25.3,11111222
Shell,ioos:station:wmo:42902:2,2020-11-03T15:07:00Z,28.6096,-87.9810,11.0,25.3,11111222
Shell,ioos:station:wmo:42902:2,2020-11-03T15:17:00Z,28.6096,-87.9810,11.0,25.3,11111222
Shell,ioos:station:wmo:42902:2,2020-11-03T15:27:00Z,28.6096,-87.9810,11.0,25.3,11111222
Shell,ioos:station:wmo:42902:2,2020-11-03T15:37:00Z,28.6096,-87.9810,11.0,25.3,11111222
Shell,ioos:station:wmo:42902:2,2020-11-03T15:47:00Z,28.6097,-87.9810,11.0,25.3,11111222
Shell,ioos:station:wmo:42902:2,2020-11-03T15:57:00Z,28.6096,-87.9810,11.0,25.3,11111222
Shell,ioos:station:wmo:42902:2,2020-11-03T16:07:00Z,28.6096,-87.9810,11.0,25.3,11111222
Shell,ioos:station:wmo:42902:2,2020-11-03T16:17:00Z,28.6096,-87.9810,11.0,25.3,11111222
Shell,ioos:station:wmo:42902:2,2020-11-03T16:27:00Z,28.6096,-87.9810,11.0,25.3,11111222
Shell,ioos:station:wmo:42902:2,2020-11-03T16:37:00Z,28.6096,-87.9810,11.0,25.3,11111222
Shell,ioos:station:wmo:42902:2,2020-11-03T16:47:00Z,28.6096,-87.9810,11.0,25.3,11111222
Shell,ioos:station:wmo:42902:2,2020-11-03T16:57:00Z,28.6096,-87.9810,11.0,25.3,11111222
Shell,ioos:station:wmo:42902:2,2020-11-03T17:07:00Z,28.6096,-87.9810,11.0,25.3,11111222
Shell,ioos:station:wmo:42902:2,2020-11-03T17:17:00Z,28.6096,-87.9810,11.0,25.3,11111222
Shell,ioos:station:wmo:42902:2,2020-11-03T17:27:00Z,28.6096,-87.9810,11.0,25.3,11111222
Shell,ioos:station:wmo:42902:2,2020-11-03T17:37:00Z,28.6096,-87.9810,11.0,25.3,11111222
Shell,ioos:station:wmo:42902:2,2020-11-03T17:47:00Z,28.6096,-87.9810,11.0,25.3,11111222
Shell,ioos:station:wmo:42902:2,2020-11-03T17:57:00Z,28.6096,-87.9810,11.0,25.3,11111222
Shell,ioos:station:wmo:42902:2,2020-11-03T18:07:00Z,28.6096,-87.9810,11.0,25.3,11111222
Shell,ioos:station:wmo:42902:2,2020-11-03T18:17:00Z,28.6096,-87.9810,11.0,25.3,11111222
Shell,ioos:station:wmo:42902:2,2020-11-03T18:27:00Z,28.6096,-87.9810,11.0,25.3,11111222
Shell,ioos:station:wmo:42902:2,2020-11-03T18:37:00Z,28.6096,-87.9810,11.0,25.3,11111222
Shell,ioos:station:wmo:42902:2,2020-11-03T18:47:00Z,28.6096,-87.9810,11.0,25.3,11111222
Shell,ioos:station:wmo:42902:2,2020-11-03T18:57:00Z,28.6096,-87.9810,11.0,25.4,11111222
Shell,ioos:station:wmo:42902:2,2020-11-03T19:07:00Z,28.6096,-87.9810,11.0,25.4,11111222
Shell,ioos:station:wmo:42902:2,2020-11-03T19:17:00Z,28.6096,-87.9810,11.0,25.4,11111222
Shell,ioos:station:wmo:42902:2,2020-11-03T19:27:00Z,28.6096,-87.9810,11.0,25.4,11111222
Shell,ioos:station:wmo:42902:2,2020-11-03T19:37:00Z,28.6096,-87.9810,11.0,25.4,11111222
Shell,ioos:station:wmo:42902:2,2020-11-03T19:47:00Z,28.6096,-87.9810,11.0,25.4,11111222
Shell,ioos:station:wmo:42902:2,2020-11-03T19:57:00Z,28.6096,-87.9810,11.0,25.4,11111222
Shell,ioos:station:wmo:42902:2,2020-11-03T20:07:00Z,28.6096,-87.9810,11.0,25.4,11111222
Shell,ioos:station:wmo:42902:2,2020-11-03T20:17:00Z,28.6096,-87.9810,11.0,25.4,11111222
Shell,ioos:station:wmo:42902:2,2020-11-03T20:27:00Z,28.6096,-87.9810,11.0,25.4,11111222
Shell,ioos:station:wmo:42902:2,2020-11-03T20:37:00Z,28.6096,-87.9810,11.0,25.4,11111222
Shell,ioos:station:wmo:42902:2,2020-11-03T20:47:00Z,28.6096,-87.9810,11.0,25.4,11111222
Shell,ioos:station:wmo:42902:2,2020-11-03T20:57:00Z,28.6096,-87.9810,11.0,25.4,11111222